User: anonymous   Login
Location: Albany
(35.0000°S, 118.0000°E)
Time: 06:28:07
(UTC-04:00)
Language:

Transit 2A - Orbit

View from above orbital plane
View from above orbital plane
View from above satellite
View from above satellite

Ground track
Ground track

The orbit data is extracted from the following two-line orbital elements,

1 00045U 60007A   16269.55635423  .00000054  00000-0  40162-4 0  9995
2 00045  66.6965   6.7835 0261557 227.2256 130.6580 14.33510936927635
Epoch (UTC): 25 September 2016 13:21:09
Eccentricity: 0.0261557
inclination: 66.6965°
perigee height: 593 km
apogee height: 967 km
right ascension of ascending node: 6.7835°
argument of perigee: 227.2256°
revolutions per day: 14.33510936
mean anomaly at epoch: 130.6580°
orbit number at epoch: 92763

The dashed part of the orbit path shows where the satellite is in the earth's shadow,  

DLR